• In Italy
  • List of Countries
  • For 7 days
  • Water Temperature
  • Satellite Maps
  • Weather Map
  • Weather Widgets
  • user-avatar
    Login

    Hourly Weather Kota

    Today, 21 September, Thursday

    Time Temperature Precipitation Wind Pressure Humidity
    00:00 +31°C° 0 mm 2 mps 729 mmHg 59%
    01:00 +30°C° 0 mm 2 mps 729 mmHg 63%
    02:00 +30°C° 0 mm 2 mps 729 mmHg 66%
    03:00 +30°C° 0.1 mm 2 mps 729 mmHg 68%
    04:00 +29°C° 0.1 mm 2 mps 729 mmHg 71%
    05:00 +29°C° 0.1 mm 2 mps 729 mmHg 74%
    06:00 +29°C° 0 mm 2 mps 729 mmHg 73%
    07:00 +29°C° 0 mm 2 mps 730 mmHg 73%
    08:00 +30°C° 0 mm 2 mps 730 mmHg 73%
    09:00 +31°C° 0 mm 2 mps 730 mmHg 66%
    10:00 +32°C° 0 mm 2 mps 730 mmHg 60%
    11:00 +34°C° 0 mm 3 mps 730 mmHg 53%
    12:00 +35°C° 0.1 mm 3 mps 730 mmHg 49%
    13:00 +36°C° 0.1 mm 3 mps 730 mmHg 45%
    14:00 +37°C° 0.1 mm 3 mps 729 mmHg 41%
    15:00 +36°C° 0 mm 3 mps 729 mmHg 44%
    16:00 +35°C° 0 mm 3 mps 729 mmHg 48%
    17:00 +34°C° 0 mm 3 mps 728 mmHg 52%
    18:00 +33°C° 0 mm 3 mps 729 mmHg 53%
    19:00 +31°C° 0 mm 3 mps 729 mmHg 54%
    20:00 +31°C° 0 mm 3 mps 730 mmHg 55%
    21:00 +30°C° 0.1 mm 2 mps 730 mmHg 56%
    22:00 +30°C° 0.1 mm 2 mps 730 mmHg 57%
    23:00 +30°C° 0.1 mm 1 mps 730 mmHg 58%

    Tomorrow, 22 September, Friday

    Time Temperature Precipitation Wind Pressure Humidity
    00:00 +29°C° 0.1 mm 2 mps 730 mmHg 59%
    01:00 +29°C° 0.1 mm 2 mps 730 mmHg 59%
    02:00 +28°C° 0.1 mm 2 mps 730 mmHg 60%
    03:00 +28°C° 0.2 mm 3 mps 730 mmHg 63%
    04:00 +28°C° 0.2 mm 3 mps 730 mmHg 65%
    05:00 +27°C° 0.2 mm 3 mps 730 mmHg 68%
    06:00 +27°C° 0.5 mm 4 mps 730 mmHg 71%
    07:00 +27°C° 0.5 mm 4 mps 731 mmHg 74%
    08:00 +27°C° 0.5 mm 4 mps 731 mmHg 77%
    09:00 +27°C° 0.4 mm 4 mps 731 mmHg 75%
    10:00 +27°C° 0.4 mm 5 mps 731 mmHg 73%
    11:00 +28°C° 0.4 mm 5 mps 731 mmHg 72%
    12:00 +28°C° 0.2 mm 5 mps 731 mmHg 71%
    13:00 +28°C° 0.2 mm 5 mps 730 mmHg 70%
    14:00 +28°C° 0.2 mm 5 mps 730 mmHg 69%
    15:00 +29°C° 0.2 mm 5 mps 730 mmHg 71%
    16:00 +29°C° 0.2 mm 5 mps 730 mmHg 72%
    17:00 +29°C° 0.2 mm 4 mps 730 mmHg 73%
    18:00 +28°C° 0.1 mm 4 mps 730 mmHg 74%
    19:00 +28°C° 0.1 mm 3 mps 731 mmHg 75%
    20:00 +28°C° 0.1 mm 3 mps 731 mmHg 77%
    21:00 +28°C° 0.1 mm 2 mps 731 mmHg 76%
    22:00 +28°C° 0.1 mm 2 mps 731 mmHg 76%
    23:00 +28°C° 0.1 mm 2 mps 731 mmHg 76%

    Day after tomorrow, 23 September, Saturday

    Time Temperature Precipitation Wind Pressure Humidity
    00:00 +28°C° 0 mm 2 mps 731 mmHg 76%
    01:00 +28°C° 0 mm 3 mps 731 mmHg 75%
    02:00 +28°C° 0 mm 3 mps 731 mmHg 75%
    03:00 +27°C° 0 mm 3 mps 731 mmHg 75%
    04:00 +27°C° 0 mm 3 mps 731 mmHg 76%
    05:00 +27°C° 0 mm 3 mps 731 mmHg 76%
    06:00 +28°C° 0 mm 4 mps 732 mmHg 73%
    07:00 +29°C° 0 mm 4 mps 732 mmHg 70%
    08:00 +29°C° 0 mm 4 mps 733 mmHg 67%
    09:00 +32°C° 0 mm 4 mps 733 mmHg 61%
    10:00 +34°C° 0 mm 5 mps 733 mmHg 54%
    11:00 +36°C° 0 mm 5 mps 733 mmHg 48%
    12:00 +37°C° 0 mm 5 mps 733 mmHg 44%
    13:00 +39°C° 0 mm 5 mps 732 mmHg 40%
    14:00 +40°C° 0 mm 6 mps 731 mmHg 36%
    15:00 +39°C° 0 mm 5 mps 731 mmHg 39%
    16:00 +37°C° 0 mm 4 mps 731 mmHg 41%
    17:00 +36°C° 0 mm 4 mps 731 mmHg 44%
    18:00 +35°C° 0 mm 4 mps 731 mmHg 46%
    19:00 +34°C° 0 mm 4 mps 732 mmHg 48%
    20:00 +33°C° 0 mm 4 mps 732 mmHg 50%
    21:00 +32°C° 0 mm 4 mps 732 mmHg 52%
    22:00 +31°C° 0 mm 3 mps 732 mmHg 54%
    23:00 +30°C° 0 mm 3 mps 733 mmHg 56%

    24 September, Sunday

    Time Temperature Precipitation Wind Pressure Humidity
    00:00 +29°C° 0 mm 3 mps 732 mmHg 58%
    01:00 +29°C° 0 mm 3 mps 732 mmHg 60%
    02:00 +28°C° 0 mm 3 mps 732 mmHg 62%
    03:00 +28°C° 0 mm 3 mps 732 mmHg 62%
    04:00 +27°C° 0 mm 3 mps 732 mmHg 63%
    05:00 +27°C° 0 mm 3 mps 732 mmHg 63%
    06:00 +28°C° 0 mm 4 mps 733 mmHg 60%
    07:00 +29°C° 0 mm 4 mps 733 mmHg 57%
    08:00 +30°C° 0 mm 5 mps 733 mmHg 53%
    09:00 +32°C° 0 mm 5 mps 733 mmHg 48%
    10:00 +34°C° 0 mm 5 mps 733 mmHg 44%
    11:00 +36°C° 0 mm 6 mps 733 mmHg 39%
    12:00 +38°C° 0 mm 6 mps 733 mmHg 37%
    13:00 +39°C° 0 mm 6 mps 732 mmHg 35%
    14:00 +40°C° 0 mm 6 mps 731 mmHg 33%
    15:00 +39°C° 0 mm 5 mps 731 mmHg 36%
    16:00 +37°C° 0 mm 5 mps 731 mmHg 39%
    17:00 +36°C° 0 mm 4 mps 731 mmHg 42%
    18:00 +35°C° 0 mm 4 mps 731 mmHg 43%
    19:00 +34°C° 0 mm 5 mps 732 mmHg 45%
    20:00 +33°C° 0 mm 5 mps 732 mmHg 46%
    21:00 +32°C° 0 mm 5 mps 732 mmHg 47%
    22:00 +32°C° 0 mm 5 mps 732 mmHg 48%
    23:00 +30°C° 0 mm 5 mps 732 mmHg 49%

    25 September, Monday

    Time Temperature Precipitation Wind Pressure Humidity
    00:00 +30°C° 0 mm 4 mps 731 mmHg 52%
    01:00 +29°C° 0 mm 4 mps 731 mmHg 54%
    02:00 +28°C° 0 mm 3 mps 731 mmHg 57%
    03:00 +28°C° 0 mm 3 mps 731 mmHg 58%
    04:00 +27°C° 0 mm 3 mps 731 mmHg 60%
    05:00 +27°C° 0 mm 2 mps 731 mmHg 62%
    06:00 +28°C° 0 mm 3 mps 732 mmHg 58%
    07:00 +29°C° 0 mm 3 mps 732 mmHg 55%
    08:00 +30°C° 0 mm 4 mps 733 mmHg 52%
    09:00 +33°C° 0 mm 4 mps 733 mmHg 46%
    10:00 +35°C° 0 mm 4 mps 733 mmHg 40%
    11:00 +37°C° 0 mm 4 mps 733 mmHg 34%
    12:00 +38°C° 0 mm 4 mps 732 mmHg 32%
    13:00 +40°C° 0 mm 4 mps 731 mmHg 30%
    14:00 +41°C° 0 mm 5 mps 730 mmHg 28%
    15:00 +40°C° 0 mm 4 mps 730 mmHg 31%
    16:00 +38°C° 0 mm 3 mps 730 mmHg 34%
    17:00 +37°C° 0 mm 3 mps 730 mmHg 37%
    18:00 +36°C° 0 mm 3 mps 730 mmHg 39%
    19:00 +34°C° 0 mm 3 mps 731 mmHg 41%
    20:00 +33°C° 0 mm 4 mps 731 mmHg 43%
    21:00 +32°C° 0 mm 4 mps 731 mmHg 45%
    22:00 +32°C° 0 mm 4 mps 731 mmHg 47%
    23:00 +30°C° 0 mm 5 mps 731 mmHg 49%

    26 September, Tuesday

    Time Temperature Precipitation Wind Pressure Humidity
    00:00 +30°C° 0 mm 5 mps 731 mmHg 50%
    01:00 +29°C° 0 mm 5 mps 730 mmHg 51%
    02:00 +29°C° 0 mm 5 mps 730 mmHg 53%
    03:00 +28°C° 0 mm 4 mps 730 mmHg 54%
    04:00 +28°C° 0 mm 3 mps 730 mmHg 55%
    05:00 +27°C° 0 mm 2 mps 731 mmHg 57%
    06:00 +28°C° 0 mm 2 mps 731 mmHg 54%
    07:00 +29°C° 0 mm 2 mps 732 mmHg 51%
    08:00 +30°C° 0 mm 2 mps 732 mmHg 48%
    09:00 +33°C° 0 mm 3 mps 732 mmHg 43%
    10:00 +35°C° 0 mm 3 mps 732 mmHg 38%
    11:00 +37°C° 0 mm 3 mps 732 mmHg 33%
    12:00 +38°C° 0 mm 3 mps 732 mmHg 31%
    13:00 +40°C° 0 mm 4 mps 731 mmHg 29%
    14:00 +41°C° 0 mm 4 mps 730 mmHg 27%
    15:00 +39°C° 0 mm 3 mps 730 mmHg 29%
    16:00 +38°C° 0 mm 3 mps 730 mmHg 32%
    17:00 +37°C° 0 mm 2 mps 730 mmHg 35%
    18:00 +36°C° 0 mm 3 mps 731 mmHg 36%
    19:00 +35°C° 0 mm 3 mps 731 mmHg 38%
    20:00 +33°C° 0 mm 3 mps 731 mmHg 39%
    21:00 +33°C° 0 mm 3 mps 731 mmHg 41%
    22:00 +32°C° 0 mm 4 mps 731 mmHg 43%
    23:00 +30°C° 0 mm 4 mps 731 mmHg 45%
    Show more